This is the latest recevied weather packets stored in our database for station/object OK2ILA-10. If no packets are shown the sender has not sent any weather packets the latest 10 day(s).
| Time | Temp. | Humidity | Pressure | Rain* | Wind** | Luminosity | Snow |
|---|---|---|---|---|---|---|---|
| 1787917308 | 27.22° C | 43% | 1016.8 hPa | - | - | - | - |
| 1787917303 | 27.22° C | 43% | 1016.8 hPa | - | - | - | - |
| 1787916707 | 27.22° C | 43% | 1017 hPa | - | - | - | - |
| 1787916703 | 27.22° C | 43% | 1017 hPa | - | - | - | - |
| 1787916107 | 27.22° C | 43% | 1016.9 hPa | - | - | - | - |
| 1787916103 | 27.22° C | 43% | 1016.9 hPa | - | - | - | - |
| 1787915507 | 27.22° C | 43% | 1017.1 hPa | - | - | - | - |
| 1787915504 | 27.22° C | 43% | 1017.1 hPa | - | - | - | - |
| 1787914907 | 26.67° C | 44% | 1017.1 hPa | - | - | - | - |
| 1787914903 | 26.67° C | 44% | 1017.1 hPa | - | - | - | - |
| 1787914307 | 26.11° C | 44% | 1017.4 hPa | - | - | - | - |
| 1787914302 | 26.11° C | 44% | 1017.4 hPa | - | - | - | - |
| 1787913706 | 26.11° C | 44% | 1017.6 hPa | - | - | - | - |
| 1787913702 | 26.11° C | 44% | 1017.6 hPa | - | - | - | - |
| 1787913106 | 26.67° C | 44% | 1017.8 hPa | - | - | - | - |
| 1787913102 | 26.67° C | 44% | 1017.8 hPa | - | - | - | - |
| 1787912506 | 26.11° C | 45% | 1017.7 hPa | - | - | - | - |
| 1787912502 | 26.11° C | 45% | 1017.7 hPa | - | - | - | - |
| 1787911902 | 25.56° C | 46% | 1018 hPa | - | - | - | - |
| 1787911306 | 25.56° C | 45% | 1018 hPa | - | - | - | - |
| 1787911301 | 25.56° C | 45% | 1018 hPa | - | - | - | - |
| 1787910705 | 26.11° C | 44% | 1018.2 hPa | - | - | - | - |
| 1787910701 | 26.11° C | 44% | 1018.2 hPa | - | - | - | - |
| 1787910105 | 26.11° C | 45% | 1018.3 hPa | - | - | - | - |
| 1787910102 | 26.11° C | 45% | 1018.3 hPa | - | - | - | - |
* Rain since midnight (hover to see other rain measurements)
** Current wind speed in m/s (hover to see current wind gust speed)